[[{"header":{"parameterUnit":"m.s-1","parameterCategory":1,"la1":30.2991,"la2":30.254,"lo1":-89.0895,"lo2":-89.0444,"dy":0.0017,"dx":0.0017,"nx":28,"ny":28,"refTime":"2024-04-14T03:00:00:Z","depth":0,"parameterNumber":2,"parameterNumberName":"U-component_of_WINDS"},"data":[0,0,0,0,0,0,0,0,0,0,0,0,0,0,0,0,0,0,0,0,0,0,0,0,0,0,0,0,0,0,0,0,0,0,0,0,0,0,0,0,0,0,0,0,0,0,0,0,0,0,0,0,0,0,0,0,0,0,1.987,1.987,0,1.9901,1.9901,1.9902,1.9853,1.9852,1.985,1.9848,1.9878,1.988,1.9883,0,0,0,0,0,0,0,0,0,0,0,0,0,1.9765,1.9768,1.987,1.987,1.987,1.9901,1.9901,1.9902,1.9854,1.9852,1.985,1.9848,1.9877,1.988,1.9883,0,0,0,0,0,0,0,0,0,0,0,0,0,1.9805,1.9768,1.987,1.985,1.9849,1.9901,1.9901,1.9902,1.9854,1.9852,1.9849,1.9847,1.9876,1.988,1.9883,1.9955,0,0,1.9894,1.9896,0,0,0,0,0,0,0,0,1.9803,1.9809,1.9853,1.9852,1.985,1.9871,1.9875,1.992,1.9855,1.9852,1.9848,1.9846,1.9878,1.9881,1.9892,1.9956,1.9958,1.9894,1.9896,1.9898,1.9899,0,0,0,0,0,0,0,1.98,1.9807,1.9882,1.9853,1.9852,1.9839,1.9842,1.9883,1.9878,1.9852,1.9849,1.9853,1.9876,1.9889,1.9892,1.9958,1.9894,1.9897,1.99,1.9901,2.008,2.0082,0,0,0,0,0,0,1.98,1.9805,1.9881,1.9883,1.982,1.9843,1.9846,1.9867,1.9878,1.9877,1.9855,1.9851,1.9884,1.9888,1.9893,1.9975,1.9898,1.9901,1.9903,2.0077,2.008,2.0083,0,0,0,0,0,0,1.9798,1.9807,1.988,1.9843,1.9851,1.9847,1.9871,1.9869,1.9881,1.988,1.9879,1.9869,1.9882,1.9888,1.9939,1.9976,1.9903,1.9906,2.0074,2.0078,2.0082,2.0142,0,0,0,0,0,0,1.9795,1.9807,1.9835,1.9844,1.9854,1.9926,1.9873,1.9871,1.9887,1.9882,1.9893,1.9892,1.9881,1.9934,1.9943,1.9979,1.9909,2.0071,2.0076,2.008,2.0136,2.0147,2.0156,0,0,0,0,0,1.9792,1.9851,1.9837,1.9846,1.9889,1.9929,1.9934,1.992,1.9891,1.9918,1.9917,1.9892,1.9971,1.994,1.9949,1.9987,2.0068,2.0074,2.008,2.0132,2.0145,2.0156,0,0,0,0,0,0,1.9845,1.9852,1.9836,1.99,1.9914,1.9921,1.9954,1.9935,1.9957,1.9951,1.9933,1.9936,1.999,1.9994,1.996,2.0056,2.0014,2.0022,2.0051,2.0063,2.0073,2.007,1.9912,0,0,0,0,0,1.9865,1.9898,1.9901,1.9957,1.9965,1.9959,1.9976,1.9964,1.9978,1.9983,1.9986,2.0,2.0027,2.0046,2.0072,2.0138,2.0138,2.0168,2.0178,2.0186,2.0193,2.0225,2.0238,2.0103,2.0103,2.0102,0,0,1.9905,1.9912,1.9934,1.9968,1.9978,2.001,1.9964,2.0002,2.0025,1.9989,2.0036,2.004,2.0053,2.0111,2.0137,2.0116,2.023,2.0194,2.0201,2.0202,2.0232,2.0245,2.0256,2.0107,2.0106,2.0105,0,0,1.9994,2.0004,2.005,2.0061,2.0076,2.0072,2.0083,2.0092,2.0092,2.0141,2.0113,2.0141,2.019,2.02,2.0211,2.0304,2.028,2.0313,2.0364,2.0396,2.0406,2.0416,2.0446,2.0457,2.032,2.032,2.032,0,2.0041,2.0091,2.0077,2.0115,2.013,2.0099,2.0145,2.0156,2.0178,2.0189,2.0166,2.0225,2.0232,2.0291,2.0313,2.0325,2.0335,2.031,2.0406,2.0415,2.0424,2.0452,2.0464,2.0323,2.0323,2.0323,2.0322,0,2.0146,2.0181,2.0217,2.0239,2.0258,2.0301,2.0291,2.0312,2.0299,2.0296,2.0344,2.0352,2.0378,2.0391,2.0379,2.0448,2.0434,2.0409,2.0367,2.044,2.0466,2.0478,2.0328,2.0327,2.0326,2.0325,0,0,2.0269,2.0283,2.0296,2.0304,2.0319,2.0345,2.0385,2.0411,2.0427,2.0444,2.0476,2.0518,2.0494,2.0507,2.0496,2.0524,2.0593,2.0495,2.0495,2.051,2.0666,2.0683,2.0696,2.0579,2.0581,2.0583,2.0664,0,2.0355,2.0424,2.0413,2.0479,2.051,2.0481,2.0515,2.0527,2.0526,2.0551,2.0549,2.0578,2.0546,2.0553,2.0581,2.0579,2.0623,2.0573,2.0605,2.0607,2.06,2.071,2.0728,2.0804,2.0674,2.0676,2.0678,0,2.0464,2.0485,2.0555,2.0563,2.0575,2.0606,2.0627,2.0652,2.0665,2.0662,2.0676,2.0659,2.0697,2.0657,2.0708,2.0674,2.0687,2.0688,2.0691,2.0691,2.0645,2.071,2.0829,2.0839,2.0694,2.0693,2.0692,0,2.0542,2.0588,2.0635,2.0644,2.0655,2.0677,2.0683,2.0693,2.0708,2.0727,2.0736,2.076,2.0771,2.0789,2.0778,2.075,2.083,2.0789,2.0826,2.0827,2.0842,2.0841,2.0962,2.0856,2.0856,2.0856,2.0855,0,2.0638,2.0681,2.067,2.0698,2.0745,2.0731,2.0777,2.078,2.0789,2.0816,2.0793,2.0819,2.0805,2.0829,2.0821,2.0863,2.0869,2.0866,2.0863,2.0867,2.0867,2.0872,2.0866,2.0859,2.0858,2.0857,2.0857,0,2.0732,2.0727,2.0775,2.0782,2.0785,2.0818,2.0823,2.0849,2.0847,2.0881,2.0889,2.0884,2.0911,2.0903,2.0933,2.0927,2.098,2.0971,2.0975,2.0972,2.1009,2.1004,2.1135,2.115,2.1038,2.1039,2.104,0,2.0792,2.0824,2.0834,2.0851,2.0858,2.0886,2.0901,2.0889,2.0906,2.0922,2.0945,2.0971,2.099,2.1036,2.1034,2.1056,2.1046,2.1091,2.1049,2.1051,2.1043,2.104,2.1042,2.1098,2.1099,2.11,2.1101,0,2.0897,2.0893,2.0916,2.0939,2.0958,2.0975,2.099,2.1005,2.0993,2.1013,2.1041,2.1056,2.1086,2.1111,2.1131,2.1136,2.1116,2.1115,2.1124,2.1126,2.1126,2.1123,2.0994,2.1111,2.111,2.1109,2.1109,2.1108,2.0974,2.1,2.1011,2.1037,2.1047,2.1061,2.1085,2.1086,2.1109,2.1132,2.1124,2.1155,2.1165,2.119,2.1198,2.1221,2.1204,2.1218,2.1221,2.1224,2.1227,2.1125,2.1225,2.1225,2.1225,2.1224,2.1224,0,2.1075,2.1081,2.1106,2.1127,2.1147,2.1128,2.1143,2.1161,2.1189,2.1201,2.1221,2.1252,2.1276,2.1276,2.1298,2.1317,2.1308,2.1323,2.1319,2.132,2.1243,2.1231,2.1329,2.1329,2.1329,2.1329,2.1329,2.1329,2.113,2.1173,2.117,2.1217,2.1222,2.1252,2.1262,2.1275,2.1283,2.1319,2.1339,2.134,2.1346,2.1369,2.1389,2.1389,2.1396,2.1414,2.141,2.1337,2.1326,2.1316,2.1305,2.1416,2.1417,2.1484,2.1485,2.1486]},{"header":{"parameterUnit":"m.s-1","parameterCategory":1,"la1":30.2991,"la2":30.254,"lo1":-89.0895,"lo2":-89.0444,"dy":0.0017,"dx":0.0017,"nx":28,"ny":28,"refTime":"2024-04-14T03:00:00:Z","depth":0,"parameterNumber":3,"parameterNumberName":"V-component_of_WINDS"},"data":[0,0,0,0,0,0,0,0,0,0,0,0,0,0,0,0,0,0,0,0,0,0,0,0,0,0,0,0,0,0,0,0,0,0,0,0,0,0,0,0,0,0,0,0,0,0,0,0,0,0,0,0,0,0,0,0,0,0,3.3397,3.3398,0,3.3474,3.3475,3.3476,3.3421,3.3419,3.3416,3.3414,3.3493,3.3497,3.3501,0,0,0,0,0,0,0,0,0,0,0,0,0,3.3198,3.3202,3.3397,3.3398,3.3399,3.3474,3.3475,3.3476,3.3422,3.3419,3.3416,3.3413,3.3491,3.3497,3.3502,0,0,0,0,0,0,0,0,0,0,0,0,0,3.3281,3.3204,3.3397,3.338,3.338,3.3474,3.3475,3.3477,3.3422,3.3419,3.3415,3.3412,3.349,3.3496,3.3503,3.3617,0,0,3.3523,3.3525,0,0,0,0,0,0,0,0,3.3277,3.3289,3.3382,3.3382,3.3381,3.3434,3.3434,3.3524,3.3423,3.3406,3.3414,3.341,3.3476,3.3484,3.3506,3.362,3.3624,3.3523,3.3527,3.353,3.3532,0,0,0,0,0,0,0,3.3271,3.3285,3.3427,3.3383,3.3383,3.3369,3.3376,3.3451,3.3461,3.3407,3.3404,3.3414,3.3475,3.35,3.3508,3.3625,3.3523,3.3529,3.3533,3.3535,3.3833,3.3837,0,0,0,0,0,0,3.3267,3.328,3.3425,3.343,3.3319,3.3375,3.3384,3.3421,3.346,3.3462,3.3417,3.3411,3.3491,3.35,3.351,3.3645,3.353,3.3536,3.354,3.383,3.3834,3.3839,0,0,0,0,0,0,3.3263,3.328,3.3422,3.3354,3.3371,3.3382,3.3425,3.3425,3.3449,3.3467,3.3468,3.344,3.3488,3.3501,3.359,3.3647,3.3539,3.3545,3.3825,3.3831,3.3837,3.3916,0,0,0,0,0,0,3.3257,3.3279,3.3324,3.3356,3.3375,3.3501,3.3428,3.3429,3.3461,3.3454,3.349,3.3492,3.3486,3.3581,3.3597,3.3654,3.355,3.382,3.3828,3.3835,3.3909,3.3924,3.3938,0,0,0,0,0,3.3251,3.3343,3.3326,3.3344,3.3431,3.3505,3.3516,3.3508,3.3466,3.351,3.3521,3.3491,3.3638,3.359,3.3608,3.3668,3.3816,3.3825,3.3834,3.3902,3.3921,3.3937,0,0,0,0,0,0,3.3318,3.3347,3.3329,3.3435,3.3468,3.3495,3.3551,3.3529,3.3574,3.3566,3.3553,3.3562,3.3655,3.367,3.3616,3.3779,3.372,3.3733,3.3766,3.3784,3.3798,3.3793,3.3556,0,0,0,0,0,3.3345,3.3404,3.3426,3.3517,3.3535,3.354,3.3572,3.3563,3.3596,3.361,3.3628,3.3661,3.3714,3.375,3.3801,3.391,3.3916,3.396,3.3975,3.3986,3.3998,3.4055,3.4074,3.3868,3.3868,3.3868,0,0,3.3403,3.3425,3.3463,3.3531,3.3556,3.3615,3.3552,3.3619,3.3663,3.362,3.3705,3.3719,3.3755,3.3854,3.3899,3.387,3.4056,3.3998,3.4007,3.4012,3.4066,3.4085,3.4103,3.3874,3.3873,3.3872,0,0,3.3537,3.3561,3.3638,3.3664,3.3701,3.3704,3.3722,3.3753,3.3761,3.3846,3.3814,3.3866,3.3959,3.3985,3.4011,3.4152,3.4126,3.4169,3.4245,3.43,3.4317,3.4331,3.438,3.4398,3.418,3.418,3.418,0,3.3603,3.3692,3.3681,3.3749,3.3779,3.3743,3.3821,3.3846,3.3898,3.3919,3.3886,3.4,3.4022,3.4126,3.4161,3.4183,3.4203,3.4165,3.4315,3.433,3.4343,3.439,3.4408,3.4185,3.4185,3.4184,3.4184,0,3.3771,3.3833,3.3891,3.3942,3.3978,3.4051,3.405,3.4088,3.4075,3.4081,3.4166,3.4191,3.4245,3.4268,3.4257,3.437,3.4351,3.4317,3.4257,3.4368,3.4411,3.4429,3.4192,3.419,3.4189,3.4188,0,0,3.3952,3.3993,3.4015,3.4036,3.4074,3.4121,3.4191,3.4244,3.4276,3.4313,3.437,3.4449,3.4416,3.4446,3.4436,3.4485,3.4594,3.4445,3.4445,3.4471,3.4718,3.4744,3.4765,3.4576,3.4579,3.4582,3.4715,0,3.4087,3.421,3.4201,3.4316,3.4372,3.4337,3.4398,3.4427,3.4433,3.4481,3.4488,3.4543,3.4497,3.4514,3.4561,3.4571,3.4643,3.4561,3.4629,3.4631,3.4621,3.4788,3.4815,3.494,3.4732,3.4735,3.4737,0,3.4262,3.4304,3.4425,3.4451,3.4474,3.453,3.4575,3.4622,3.4653,3.4654,3.4686,3.4667,3.4737,3.4675,3.4769,3.4714,3.474,3.4749,3.4753,3.4759,3.4691,3.4798,3.4979,3.4998,3.4764,3.4762,3.476,0,3.438,3.4467,3.455,3.4569,3.4603,3.4642,3.4658,3.4685,3.4717,3.4757,3.4776,3.4824,3.485,3.4887,3.4881,3.4837,3.4976,3.4915,3.4978,3.4979,3.501,3.5008,3.5198,3.5028,3.5028,3.5027,3.5027,0,3.4533,3.4608,3.4603,3.4654,3.4736,3.4724,3.4806,3.4817,3.4841,3.4893,3.4865,3.4914,3.4904,3.4952,3.4948,3.5026,3.5038,3.504,3.5038,3.5042,3.5042,3.506,3.5051,3.5032,3.5031,3.503,3.5029,0,3.4679,3.4679,3.4767,3.4791,3.4799,3.4858,3.4878,3.4926,3.4929,3.4994,3.5009,3.5014,3.507,3.5067,3.513,3.5127,3.5222,3.5211,3.5212,3.5209,3.5273,3.5267,3.5481,3.5508,3.5321,3.5322,3.5324,0,3.4776,3.4833,3.4862,3.4895,3.4913,3.4966,3.4997,3.4986,3.502,3.5059,3.5101,3.5154,3.5195,3.5285,3.5294,3.5341,3.5329,3.5401,3.5336,3.5338,3.5329,3.5326,3.5331,3.5414,3.5416,3.5418,3.5419,0,3.4948,3.4944,3.4991,3.5037,3.5075,3.511,3.5143,3.5171,3.5164,3.5203,3.5259,3.5291,3.5354,3.5406,3.5451,3.5466,3.5441,3.5439,3.5456,3.5461,3.546,3.546,3.5246,3.5435,3.5433,3.5432,3.5431,3.543,3.5072,3.512,3.5148,3.5199,3.5223,3.5253,3.5298,3.5307,3.5353,3.5404,3.5394,3.5457,3.5484,3.5542,3.5561,3.5608,3.5583,3.5608,3.5614,3.562,3.5627,3.5452,3.5617,3.5616,3.5616,3.5615,3.5615,0,3.5241,3.5257,3.5305,3.5351,3.5391,3.5364,3.5398,3.5433,3.5488,3.5516,3.5557,3.562,3.567,3.5682,3.5729,3.5765,3.5755,3.5778,3.5775,3.5779,3.5648,3.5628,3.5785,3.5785,3.5785,3.5785,3.5785,3.5785,3.5334,3.5413,3.5413,3.5502,3.5517,3.5578,3.5599,3.5627,3.5648,3.572,3.5761,3.5769,3.579,3.5838,3.5882,3.5884,3.5902,3.593,3.5927,3.5805,3.5788,3.5772,3.5753,3.5934,3.5934,3.6054,3.6055,3.6056]}]]